Regional Weather Roundup
Issued by NWS

Home | Current Version | Previous Version | Text Only | Print | Product List | Glossary On
Versions: 1 2 3 4 5 6 7 8 9 10 11 12 13 14 15 16 17 18 19 20 21 22 23 24 25 26 27 28 29 30 31 32 33 34 35 36 37 38 39 40 41 42 43 44 45 46 47 48 49 50
577
ASUS43 KLMK 200902
RWRKY
KENTUCKY REGIONAL WEATHER ROUNDUP
NATIONAL WEATHER SERVICE LOUISVILLE KY
400 AM EST FRI JAN 20 2017

NOTE "FAIR" INDICATES FEW OR NO CLOUDS BELOW 12,000 FEET
WITH NO SIGNIFICANT WEATHER AND/OR OBSTRUCTIONS TO VISIBILITY.

KYZ001>023-026-027-061>063-070>075-201000-
WESTERN AND SOUTH CENTRAL KENTUCKY

CITY           SKY/WX    TMP DP  RH WIND       PRES   REMARKS
PADUCAH        CLOUDY    55  52  89 SW13G18   29.66F
HENDERSON      CLOUDY    55  52  88 SW12      29.64R
OWENSBORO      MOCLDY    55  54  96 SW10      29.65R
HOPKINSVILLE   CLOUDY    55  55 100 SW14      29.69S
BOWLING GREEN  CLOUDY    57  55  93 SW8       29.69R
GLASGOW        NOT AVBL
$$

KYZ024-025-028>034-038-045-046-053-201000-
NORTH CENTRAL KENTUCKY

CITY           SKY/WX    TMP DP  RH WIND       PRES   REMARKS
LOUISVILLE/SDF LGT RAIN  55  52  89 W13       29.62S
LOUISVILLE/LOU LGT RAIN  54  52  93 SW5       29.63S
FORT KNOX      CLOUDY    55  55 100 SW9       29.63R
$$

KYZ035>037-039>044-047>052-055>060-089>105-201000-
NORTHEAST KENTUCKY

CITY           SKY/WX    TMP DP  RH WIND       PRES   REMARKS
LEXINGTON      LGT RAIN  54  51  90 S14       29.64R FOG
COVINGTON      LGT RAIN  50  49  96 SE15      29.58F FOG
FRANKFORT      LGT RAIN  56  52  86 SW9       29.62R FOG
$$

KYZ054-064>069-076>088-106>120-201000-
SOUTHEAST KENTUCKY

CITY           SKY/WX    TMP DP  RH WIND       PRES   REMARKS
JACKSON        RAIN      51  48  89 CALM      29.67F FOG
LONDON         CLOUDY    54  50  86 SW7       29.70R
SOMERSET       HVY RAIN  54  54 100 S6        29.71R
MIDDLESBORO    RAIN      53  51  95 SE5       29.73F
MONTICELLO     LGT RAIN  56  54  93 SW16      29.73R
$$





USA.gov is the U.S. government's official web portal to all federal, state and local government web resources and services.